Flag for Slovenia Weather past 2 weeks in Celje, Slovenia

Now
31 °F

Chilly.


Feels Like: 31 °F
Forecast: 18 / 37 °F
Wind: 1 mph from Northeast

Location: Celje

Current Time: Feb 1, 2015 at 11:50:30 AM

Latest Report: Feb 1, 2015 at 11:00 AM


Visibility: N/A

Pressure: 29.29 "Hg

Humidity: 96%

Dew point: 30 °F

Location of CeljeLocation

Historic Weather in Celje — Graph

°F

Celje temperature yesterday

Maximum temperature yesterday: 40 °F (at 2:00 PM)
Minimum temperature yesterday: 21 °F (at 8:00 AM)
Average temperature yesterday: 30 °F

Past Weeks' High & Low Weather Summary

 TemperatureHumidityPressure
High59 °F (Jan 17, 1:00 PM)100% (Jan 20, 7:00 AM)30.34 "Hg (Jan 20, 7:00 AM)
Low21 °F (Jan 28, 8:00 AM)46% (Jan 28, 2:00 PM)28.82 "Hg (Jan 30, 10:00 AM)
Average36 °F88%29.83 "Hg
* Reported Jan 17 10:00 AM — Feb 1 10:00 AM, Celje, Weather by CustomWeather, © 2014

Note: Actual official high and low records may vary slightly from our data, if they occured in-between our weather recording intervals... More about our weather records

Advertising

Celje weather history for previous 24 hours

 ConditionsComfort  
Time TempWeatherWind HumidityBarometerVisibility
10:00 AM
Feb 1
29 °FChilly.1 mph98%29.29 "HgN/A
9:00 AM28 °FChilly.1 mph99%29.29 "HgN/A
8:00 AM27 °FFog.No wind99%29.26 "Hg1 mi
7:00 AM27 °FFog.2 mph99%29.26 "Hg0 mi
6:00 AM28 °FChilly.No wind100%29.26 "HgN/A
5:00 AM27 °FChilly.1 mph99%29.23 "HgN/A
4:00 AM27 °FChilly.No wind99%29.23 "HgN/A
3:00 AM27 °FChilly.1 mph99%29.23 "HgN/A
2:00 AM28 °FChilly.2 mph99%29.26 "HgN/A
1:00 AM28 °FChilly.No wind99%29.26 "HgN/A
12:00 AM27 °FChilly.No wind100%29.26 "HgN/A
11:00 PM
Jan 31
27 °FChilly.1 mph99%29.26 "HgN/A
10:00 PM27 °FChilly.1 mph99%29.26 "HgN/A
9:00 PM28 °FChilly.2 mph99%29.26 "HgN/A
8:00 PM26 °FChilly.1 mph98%29.26 "HgN/A
7:00 PM29 °FPassing clouds.1 mph98%29.23 "Hg6 mi
6:00 PM29 °FChilly.1 mph97%29.23 "HgN/A
5:00 PM32 °FChilly.No wind94%29.21 "HgN/A
4:00 PM38 °FChilly.1 mph80%29.18 "HgN/A
3:00 PM39 °FChilly.1 mph65%29.18 "HgN/A
2:00 PM40 °FPassing clouds.No wind62%29.18 "Hg19 mi
1:00 PM39 °FPassing clouds.No wind59%29.18 "Hg19 mi
12:00 PM34 °FChilly.2 mph70%29.21 "HgN/A
11:00 AM32 °FChilly.3 mph76%29.21 "HgN/A
Weather by CustomWeather, © 2014

See weather overviewHow to use our weather pages